Flag for Germany Weather past 2 weeks in Marl, North Rhine-Westphalia, Germany

Now
75 °F

Sunny.


Feels Like: 77 °F
Forecast: 49 / 76 °F
Wind: 3 mph from North

Location: Dortmund / Wickede

Current Time: Aug 1, 2015 at 4:59:36 PM

Latest Report: Aug 1, 2015 at 4:20 PM


Visibility: 10 mi

Pressure: 29.98 "Hg

Humidity: 34%

Dew point: 45 °F

Location of MarlLocation

Historic Weather in Marl — Graph

°F

Marl temperature yesterday

Maximum temperature yesterday: 66 °F (at 3:50 PM)
Minimum temperature yesterday: 45 °F (at 5:20 AM)
Average temperature yesterday: 58 °F

Past Weeks' High & Low Weather Summary

 TemperatureHumidityPressure
High86 °F (Jul 17, 3:20 PM)88% (Jul 18, 6:50 AM)30.15 "Hg (Jul 18, 6:50 AM)
Low45 °F (Jul 31, 5:20 AM)27% (Jul 17, 3:20 PM)29.50 "Hg (Jul 25, 7:50 AM)
Average64 °F65%29.87 "Hg
* Reported Jul 17 3:20 PM — Aug 1 3:20 PM, Marl, Weather by CustomWeather, © 2015

Note: Actual official high and low records may vary slightly from our data, if they occured in-between our weather recording intervals... More about our weather records

Advertising

Marl weather history for previous 24 hours

 ConditionsComfort  
Time TempWeatherWind HumidityBarometerVisibility
3:20 PM
Sat, Aug 1
73 °FSunny.5 mph33%29.95 "Hg10 mi
2:50 PM75 °FSunny.5 mph31%29.98 "Hg10 mi
2:20 PM73 °FPassing clouds.5 mph31%29.98 "HgN/A
1:50 PM72 °FPassing clouds.5 mph33%29.98 "HgN/A
1:20 PM73 °FPassing clouds.6 mph38%29.98 "HgN/A
12:50 PM72 °FSunny.5 mph36%29.98 "Hg10 mi
12:20 PM70 °FSunny.3 mph38%29.98 "Hg10 mi
11:50 AM70 °FSunny.5 mph40%29.98 "Hg10 mi
11:20 AM68 °FSunny.5 mph43%29.98 "Hg10 mi
10:50 AM64 °FSunny.3 mph49%29.98 "Hg10 mi
10:20 AM64 °FSunny.2 mph49%29.98 "Hg10 mi
9:50 AM63 °FSunny.2 mph52%29.98 "Hg10 mi
9:20 AM59 °FSunny.2 mph59%29.98 "Hg10 mi
8:50 AM57 °FSunny.1 mph67%29.98 "Hg10 mi
8:20 AM54 °FSunny.2 mph72%29.98 "Hg10 mi
7:50 AM50 °FSunny.1 mph82%29.98 "Hg10 mi
7:20 AM52 °FSunny.2 mph77%29.98 "Hg10 mi
6:50 AM48 °FRain. Overcast.2 mph82%29.98 "Hg1 mi
6:20 AM48 °FClear.2 mph82%29.98 "Hg10 mi
5:50 AM48 °FClear.5 mph82%29.98 "Hg10 mi
5:20 AM46 °FClear.6 mph82%29.98 "Hg10 mi
10:50 PM
Fri, Jul 31
55 °FClear.5 mph55%30.04 "Hg10 mi
10:20 PM55 °FClear.5 mph59%30.04 "Hg10 mi
9:50 PM57 °FSunny.6 mph51%30.04 "Hg10 mi
9:20 PM57 °FSunny.5 mph51%30.04 "Hg10 mi
8:50 PM59 °FSunny.5 mph48%30.04 "Hg10 mi
8:20 PM63 °FPassing clouds.6 mph39%30.04 "HgN/A
7:50 PM63 °FPassing clouds.6 mph39%30.04 "HgN/A
7:20 PM64 °FPassing clouds.5 mph37%30.07 "HgN/A
6:50 PM64 °FPassing clouds.6 mph37%30.07 "HgN/A
6:20 PM66 °FSunny.6 mph35%30.07 "Hg10 mi
5:50 PM64 °FSunny.2 mph37%30.07 "Hg10 mi
5:20 PM66 °FSunny.3 mph35%30.07 "Hg10 mi
4:50 PM64 °FSunny.5 mph34%30.07 "Hg10 mi
4:20 PM64 °FPassing clouds.5 mph37%30.09 "HgN/A
Weather by CustomWeather, © 2015

See weather overviewHow to use our weather pages